Location: Cardiff
(53.7833°N, 113.6000°W)
Time: 15:26:19
(UTC+00:00)

RS-15 - Pass Details

Date: 08 December 2023
Orbit: 1893 x 2151 km, 64.8° (Epoch: 27 February)

Event Time Altitude Azimuth Distance (km) Brightness Sun altitude
Exits shadow 11:34:55 57° 308° (NW) 2,264 8.0 -34.5°
Maximum altitude 11:37:58 83° 230° (SW) 1,976 7.8 -34.0°
Drops below altitude 10° 11:48:59 10° 144° (SE) 4,295 10.1 -32.4°
Sets 11:52:10 0° 144° (SE) 5,276 10.7 -31.9°
